Simultaneous Nadir Overpasses (SNOs) Predictions

Prediction of SNOs over PacNW region [( 10.00, 139.50) to ( 22.70, 165.60)] between NOAA-19 and NPP Satellites:

Table of predicted SNOs over PacNW region for the next 30.0 days since TLE Epoch: 6/28/2012
Index Date (NOAA-19) Time (NOAA-19) NOAA-19 Lat,Lon Date (NPP) Time (NPP) NPP Lat,Lon Distance(km) Time Diff (sec)
1 07/03/2012 14:56:36 22.59, 162.72 07/03/2012 14:56:37 23.12, 160.42 243.62 1
2 07/04/2012 03:55:13 22.70, 140.65 07/04/2012 03:51:36 24.95, 138.87 309.62 217
3 07/15/2012 16:11:19 22.60, 144.06 07/15/2012 16:14:09 23.30, 141.04 319.15 170
4 07/16/2012 03:27:48 22.66, 147.53 07/16/2012 03:26:58 22.26, 145.50 213.77 50
5 07/28/2012 02:56:48 10.09, 157.43 07/28/2012 03:00:24 7.66, 154.51 419.49 216
